Location: Buchloe
(48.0161°N, 10.7316°E)
Time: 03:37:50
(UTC+02:00)

ISS - Pass Details

Date: 20 May 2018
Orbit: 402 x 407 km, 51.6° (Epoch: 23 May)

Event Time Altitude Azimuth Distance (km) Brightness Sun altitude
Rises 04:48:44 0° 291° (WNW) 2,319 -0.3 -6.8°
Reaches altitude 10° 04:50:54 10° 282° (WNW) 1,456 -1.4 -6.5°
Maximum altitude 04:53:56 36° 214° (SW) 651 -3.3 -6.1°
Drops below altitude 10° 04:56:58 10° 146° (SE) 1,449 -1.1 -5.7°
Sets 04:59:07 0° 137° (SE) 2,305 0.1 -5.4°
